Weather History for Burns, OR

Change the Weather History Date:

Thursday, December 19, 2013

  Actual Average Record
Temperature  
Mean Temperature 17 °F 23 °F  
Max Temperature 32 °F 33 °F 55 °F (1946)
Min Temperature 1 °F 13 °F -20 °F (1984)
Degree Days  
Heating Degree Days 48 42  
Month to date heating degree days 962 766  
Since 1 July heating degree days 2885 2767  
Cooling Degree Days 0 0  
Month to date cooling degree days 0 0  
Year to date cooling degree days 372 215  
Moisture  
Dew Point 7 °F    
Average Humidity 62    
Maximum Humidity 91    
Minimum Humidity 32    
Precipitation  
Precipitation 0.00 in 0.06 in 0.75 in (2005)
Month to date precipitation 0.17 0.95  
Year to date precipitation 6.86 10.32  
Sea Level Pressure  
Sea Level Pressure 30.10 in    
Wind  
Wind Speed 9 mph (WNW)    
Max Wind Speed 22 mph    
Max Gust Speed 26 mph    
Visibility 10 miles    
Events      
T = Trace of Precipitation, MM = Missing Value Source: NWS Daily Summary

Daily Weather History Graph

Daily Weather History Graph

Search for Another Location

Airport:

Trip Planner

Search our weather history database for the weather conditions in past years. The results will help you decide how hot, cold, wet, or windy it might be!

Date:

Astronomy

Dec. 19, 2013 Rise Set
Actual Time 7:25 AM PST 4:21 PM PST
Civil Twilight 6:52 AM PST 4:54 PM PST
Nautical Twilight 6:15 AM PST 5:30 PM PST
Astronomical Twilight 5:40 AM PST 6:05 PM PST
Moon 6:55 PM PST (12/19) 8:43 AM PST (12/19)
Length of Visible Light 10h 01m
Length of Day
8h 56m
Waning Gibbous, 95% of the Moon is Illuminated
Dec 19
Waning Gibbous
Dec 25
Last Quarter
Jan 1
New
Jan 7
First Quarter
Jan 15
Full

Hourly Weather History & Observations

Time (PST) Temp. Windchill Dew Point Humidity Pressure Visibility Wind Dir Wind Speed Gust Speed Precip Events Conditions
12:53 AM 23.0 °F - 16.0 °F 74% 29.96 in 10.0 mi Calm Calm - N/A   Mostly Cloudy
1:53 AM 19.9 °F 12.1 °F 16.0 °F 85% 29.96 in 10.0 mi SW 5.8 mph - N/A   Mostly Cloudy
2:53 AM 19.9 °F - 16.0 °F 85% 29.97 in 10.0 mi Calm Calm - N/A   Scattered Clouds
3:53 AM 12.9 °F 6.9 °F 9.0 °F 84% 29.99 in 10.0 mi WSW 3.5 mph - N/A   Clear
4:53 AM 9.0 °F 0.6 °F 7.0 °F 92% 30.02 in 10.0 mi WNW 4.6 mph - N/A   Partly Cloudy
5:53 AM 26.1 °F 12.7 °F 14.0 °F 60% 30.02 in 10.0 mi NW 18.4 mph 24.2 mph N/A   Overcast
6:53 AM 19.0 °F 9.0 °F 12.0 °F 74% 30.08 in 10.0 mi NW 8.1 mph - N/A   Partly Cloudy
7:53 AM 18.0 °F 6.9 °F 10.0 °F 71% 30.11 in 10.0 mi North 9.2 mph - N/A   Clear
8:53 AM 23.0 °F 10.1 °F 10.0 °F 58% 30.13 in 10.0 mi NW 15.0 mph - N/A   Clear
9:53 AM 25.0 °F 14.8 °F 6.1 °F 45% 30.14 in 10.0 mi NW 10.4 mph - N/A   Clear
10:53 AM 28.0 °F 17.5 °F 6.1 °F 39% 30.12 in 10.0 mi NW 12.7 mph - N/A   Clear
11:53 AM 30.0 °F 19.1 °F 6.1 °F 36% 30.10 in 10.0 mi WNW 15.0 mph - N/A   Clear
12:53 PM 30.9 °F 19.8 °F 7.0 °F 37% 30.09 in 10.0 mi NW 16.1 mph - N/A   Clear
1:53 PM 30.9 °F 19.4 °F 5.0 °F 33% 30.09 in 10.0 mi NW 17.3 mph - N/A   Clear
2:53 PM 28.0 °F 16.1 °F 8.1 °F 43% 30.10 in 10.0 mi West 16.1 mph - N/A   Clear
3:53 PM 25.0 °F 14.2 °F 8.1 °F 49% 30.12 in 10.0 mi WNW 11.5 mph - N/A   Clear
4:53 PM 19.0 °F 8.2 °F 6.1 °F 57% 30.19 in 10.0 mi West 9.2 mph - N/A   Clear
5:53 PM 18.0 °F 6.1 °F 3.9 °F 54% 30.14 in 10.0 mi West 10.4 mph - N/A   Clear
6:53 PM 17.1 °F 4.3 °F 3.0 °F 54% 30.17 in 10.0 mi West 11.5 mph - N/A   Clear
7:53 PM 14.0 °F 0.5 °F 3.0 °F 62% 30.18 in 10.0 mi WNW 11.5 mph - N/A   Clear
8:53 PM 10.0 °F -0.9 °F 1.9 °F 70% 30.17 in 10.0 mi SW 6.9 mph - N/A   Clear
9:53 PM 9.0 °F 2.4 °F 1.0 °F 70% 30.19 in 10.0 mi WNW 3.5 mph - N/A   Clear
10:53 PM 6.1 °F - -0.0 °F 76% 30.20 in 10.0 mi Calm Calm - N/A   Clear
11:53 PM 1.9 °F -9.2 °F -2.0 °F 83% 30.21 in 10.0 mi North 5.8 mph - N/A   Clear